Showing default

QPS-SAR-15 SUKUNAMI-1, 67228

Orbit data source: Space-Track

QPS-SAR-15 SUKUNAMI-1, 67228 is a payload satellite owned by QPS Labs (JP) in LEO that was launched on Sun, 21 Dec 2025 UTC via an ELECTRON launch vehicle from the Rocket Lab Launch Complex (RLLC). Payload-class satellites include a variety of spacecraft equipped with specific instruments for various scientific and technological missions. These include communications satellites like Starlink; space stations such as the ISS; scientific satellites like the Hubble; Earth observation satellites from companies like Planet Labs, Umbra, and HawkEye 360; GPS; miniature CubeSats for education and research; and military/defense satellites.

Loading next visibility...
Identifier
67228, 2025-307A
Orbit
LEO
Country
Flag of JPJP / JPN
Related business
Manufacturer
QPS Labs
Mission
Operational Commercial Radar Imaging
Bus & Motor
QSAT, Unknown motor
Mass
~120 kg wet, ~100 kg dry
Launch date (UTC)
2025-12-21 (6 months ago)
Launch vehicle
ELECTRON
Launch site
Rocket Lab Launch Complex (RLLC)
Object type
Payload
Rocket body
Debris
Shape & HBR
Hex Cyl + 2 Pan + 1 Dish, 14.5 m
Radar Cross Section
1.179 m², Large (>1 m²)

Expand to show TLE details & history
Last TLE update: 13 hours ago

TLE from 13 hours ago
0 QPS-SAR-15 SUKUNAMI-1
1 67228U 25307A   26171.37084684  .00002708  00000-0  23445-3 0  9997
2 67228  42.0038 210.4149 0009823   9.3677 350.7329 14.99011605 27160
Epoch: 2026-06-20T08:54Z
TLE epoch observation values (Epoch: 2026-06-20T08:54:01.166Z)
Latitude
-0.0001°
Longitude
168.3235°
Altitude
562.883 km
Speed
7.585 km/s
True Right ascension
14h 01m 39s
True Declination
0° 00' 00"
Sunlit
Object was in full shadow at epoch
Visualization orbit readout
Latitude
Unknown
Longitude
Unknown
Altitude
Unknown
Speed
Unknown
Apparent Right ascension
Unknown
Apparent Declination
Unknown
Sunlit
N/A
Visualization observer readout
Local Sidereal Time
08:46:33
Azimuth
Unknown
Elevation
Unknown
Doppler factor
Unknown
Orbital elements
Apogee altitude
578.862 km
Perigee altitude
565.207 km
Semi-major axis
6,950.172 km
Eccentricity
0.00098
Inclination
42.0038°
RAAN
210.4149°
Arg. of periapsis
9.3677°
True anomaly
350.71475°
Mean anomaly
350.7329°
Eccentric anomaly
350.72383°
Mean motion
3.74585 °/min
Orbital period
96.11 mins
BSTAR
0.00023445
Loading maneuver chart data...
Computing Atmospheric mass density...
Loading historical data...
Loading historical data...
Loading historical data...
Loading historical data...
Loading historical data...
Loading historical data...
Loading historical data...
Other satellites on launch #307 in the year 2025 (2025-12-21 UTC)

Documentation

Showing up to 5 results
|